OpenBCM V1.13 (Linux)

Packet Radio Mailbox

DB0FHN

[JN59NK Nuernberg]

 Login: GUEST





  
I0OJJ  > KEPS     29.01.25 06:03l 336 Lines 15891 Bytes #999 (0) @ AMSAT
BID : ORB25029.1
Read: DJ6UX GUEST
Subj: 2Line Orbital Elements 25029.AMSAT
Path: DB0FHN<DB0LHR<OK1TOR<OE2XZR<OE5XBL<OE6XPE<DB0ERF<IZ3LSV<I0OJJ<I0OJJ
Sent: 250129/0345z @:I0OJJ.ITA.EU [Rome] obcm1.08-6-g5b69

>From i0ojj%i0ojj.ita.eu@i0ojj.ampr.org Wed Jan 29 04:45:10 2025
Received: from i0ojj.ampr.org by i0ojj.ampr.org (JNOS2.0p.5) with SMTP
	id AA17019850 ; Wed, 29 Jan 2025 04:45:10 +0100
Message-Id: <ORB25029.1@i0ojj.bbs>
>From: i0ojj@i0ojj.ita.eu
X-JNOS-User-Port: Uplink   (I0OJJ-2 on port hub)  ->  Sending message

From: I0OJJ @ I0OJJ.ITA.EU (Gustavo)
To:   KEPS @ AMSAT
X-Info: This message was generated automatically


QST de W1STR

AMSAT Orbital Elements for Amateur Satellites in TLE Format
>From Orbital Analysis Office
New England Sci-Tech STEM Education Center
Natick, MA January 29, 2025
To all radio amateurs


These element sets describe the orbits of various satellites 
in use by the amateur radio community. For details see:
www.amsat.org/keplerian-elements-formats/

A daily update of element sets is available at:
www.amsat.org/tle/daily-bulletin.txt
or without bulletin text:
www.amsat.org/tle/dailytle.txt


AO-07
1 07530U 74089B   25028.76465907 -.00000029  00000-0  10937-3 0  9999
2 07530 101.9922  31.6303 0012249  14.8361 162.0913 12.53685574297543
UO-11
1 14781U 84021B   25028.42125356  .00002834  00000-0  31001-3 0  9996
2 14781  97.7363 357.6161 0009304  59.6103 300.6033 14.88574098181972
AO-27
1 22825U 93061C   25028.39497426  .00000310  00000-0  13562-3 0  9993
2 22825  98.7577  89.1767 0009154 135.6220 224.5697 14.30717266634814
FO-29
1 24278U 96046B   25028.25882193  .00000064  00000-0  10393-3 0  9992
2 24278  98.5884 299.4792 0349513 325.4936  32.3952 13.53234175405126
NOAA-15
1 25338U 98030A   25028.77449838  .00000395  00000-0  18042-3 0  9993
2 25338  98.5496  56.9919 0010711  30.6738 329.5067 14.26868838389602
GO-32
1 25397U 98043D   25028.69188644  .00000256  00000-0  13102-3 0  9996
2 25397  98.9544   5.1753 0000820 175.6819 184.4366 14.24243096379731
ISS
1 25544U 98067A   25028.85936707  .00016270  00000-0  28578-3 0  9991
2 25544  51.6401 277.1490 0002616 147.0841 263.6732 15.50657701493551
NO-44
1 26931U 01043C   25028.47259673  .00000488  00000-0  21418-3 0  9998
2 26931  67.0509 109.3766 0006162 262.4666  97.5736 14.31599858218190
SO-50
1 27607U 02058C   25028.09355260  .00002578  00000-0  34700-3 0  9993
2 27607  64.5530 249.2663 0040202   8.3524 351.8241 14.80848556189606
CO-55
1 27844U 03031E   25027.94154118  .00000837  00000-0  38524-3 0  9994
2 27844  98.6783  37.9255 0009169 206.9195 153.1509 14.23789337119761
CO-57
1 27848U 03031J   25028.46193260  .00000703  00000-0  33040-3 0  9997
2 27848  98.6809  38.5415 0008807 223.1888 136.8600 14.23155215119578
RS-22
1 27939U 03042A   25028.81193691  .00002669  00000-0  43639-3 0  9995
2 27939  98.3110 195.2353 0012591  68.9242  38.0516 14.71666679141441
NOAA-18
1 28654U 05018A   25028.75375131  .00000424  00000-0  24862-3 0  9993
2 28654  98.8545 109.6704 0014911 141.3959 218.8282 14.13500116 15123
CO-58
1 28895U 05043F   25028.24749769  .00003817  00000-0  64340-3 0  9998
2 28895  98.2265 171.1969 0015058  10.0745 350.0759 14.70026145 27497
CO-65
1 32785U 08021C   25028.88014325  .00009556  00000-0  73560-3 0  9993
2 32785  97.7658 359.4346 0008579 307.4479  52.5964 15.01856942909365
AAUSAT2
1 32788U 08021F   25028.71509784  .00087353  00000-0  18648-2 0  9992
2 32788  97.6049  19.5827 0007597  95.8562 264.3552 15.44521555912871
CO-66
1 32791U 08021J   25027.92236688  .00019546  00000-0  11024-2 0  9998
2 32791  97.7152   5.6219 0001939 255.6485 104.4530 15.13208585910392
RS-30
1 32953U 08025A   25028.73780697  .00000033  00000-0  16992-3 0  9997
2 32953  82.5057 309.1956 0019479 336.2801  23.7379 12.43157933757151
NOAA-19
1 33591U 09005A   25028.80958519  .00000387  00000-0  23041-3 0  9998
2 33591  99.0171  92.6772 0013937  19.9537 340.2177 14.13271427823492
SRMSAT
1 37841U 11058D   25028.26709168  .00000646  00000-0  20754-3 0  9991
2 37841  19.9702 235.1880 0011788  49.8109 105.7113 14.11347678686613
ZACUBE-1
1 39417U 13066B   25028.11637184  .00007512  00000-0  69039-3 0  9993
2 39417  97.7640 346.1859 0047539 132.5011 228.0241 14.94216247605118
Delfi-N3xt
1 39428U 13066N   25028.26106679  .00013020  00000-0  14200-2 0  9991
2 39428  97.8387 307.6800 0092046  75.5504 285.5904 14.84973288599416
GOMX-1
1 39430U 13066Q   25028.72867989  .00004956  00000-0  78874-3 0  9999
2 39430  97.7009 255.4115 0133286 254.1092 104.5390 14.66640817596074
LO-74
1 39440U 13066AA  25027.75683833  .00007122  00000-0  75652-3 0  9995
2 39440  97.8364 333.5408 0062783 257.5929 101.8256 14.87868940601678
AO-73
1 39444U 13066AE  25028.39948676  .00011904  00000-0  97315-3 0  9992
2 39444  97.7483 350.4209 0043833 107.9959 252.6048 14.98753814603767
DTUSAT-2
1 40030U 14033W   25028.40573367  .00011895  00000-0  84311-3 0  9994
2 40030  98.0389 354.2770 0011229 137.8979 222.3110 15.04904521576496
EO-80
1 40032U 14033Y   25028.63287680  .00013003  00000-0  91881-3 0  9994
2 40032  98.0293 354.3451 0011268  87.3287 272.9228 15.04994007577022
XW-2C
1 40906U 15049H   25028.79909843  .00417278  69132-4  12469-2 0  9992
2 40906  97.4405  62.6874 0004107 160.9567 199.1862 15.92349525519612
LILACSAT-2
1 40908U 15049K   25028.75496180  .00016407  00000-0  49577-3 0  9990
2 40908  97.5164  46.2641 0008291 273.5628  86.4666 15.34283458517980
IO-86
1 40931U 15052B   25025.93518289  .00001895  00000-0  16605-3 0  9993
2 40931   5.9982 200.2908 0012808 359.8798   0.1327 14.78536532504580
Horyu-4
1 41340U 16012D   25028.43214781  .00029335  00000-0  10196-2 0  9990
2 41340  30.9987 295.3207 0005793 128.8342 231.2819 15.28530964492497
Lapan A3
1 41603U 16040E   25028.83963607  .00006525  00000-0  23884-3 0  9990
2 41603  97.1385  38.7373 0012176  28.5129 331.6775 15.28292744477659
CAS-2T
1 41847U 16066G   25028.46935506  .00003509  00000-0  51157-3 0  9997
2 41847  98.4359 104.0565 0348004 217.8304 139.7963 14.42801261431969
CAS-4B
1 42759U 17034B   25028.66547393  .00048503  00000-0  97667-3 0  9990
2 42759  43.0132  17.5034 0014448  91.8427 268.4086 15.45722576422077
CAS-4A
1 42761U 17034D   25028.82934080  .00049872  00000-0  98881-3 0  9993
2 42761  43.0170  14.5595 0015609 100.4834 259.7784 15.46143254422114
TechnoSat
1 42829U 17042E   25028.71758368  .00005634  00000-0  45524-3 0  9992
2 42829  97.3913 203.8288 0013151  27.0425 333.1482 15.00116962410944
AO-91
1 43017U 17073E   25028.18483812  .00017427  00000-0  95284-3 0  9997
2 43017  97.5485 262.4180 0183022 257.2920 100.7791 15.01068466389328
S-Net D
1 43186U 18014G   25028.23194806  .00008940  00000-0  56179-3 0  9998
2 43186  97.5750 292.6067 0008666 329.3258  30.7463 15.09450600382395
S-Net B
1 43187U 18014H   25028.23582967  .00008849  00000-0  55625-3 0  9991
2 43187  97.5760 292.5753 0009223 323.7293  36.3310 15.09437308382398
S-Net A
1 43188U 18014J   25028.23274314  .00008901  00000-0  55924-3 0  9997
2 43188  97.5763 292.7061 0009163 324.4146  35.6471 15.09454964382391
S-Net C
1 43189U 18014K   25028.23794421  .00008844  00000-0  55582-3 0  9990
2 43189  97.5783 292.7024 0010492 315.1456  44.8924 15.09435511380942
Ten-Koh
1 43677U 18084G   25028.18130000  .00005567  00000-0  46170-3 0  9992
2 43677  98.0809 195.2308 0012748 348.1513  11.9407 14.99184556340391
PO-101
1 43678U 18084H   25028.78265438  .00002711  00000-0  23981-3 0  9996
2 43678  98.0895 200.0505 0009093   9.6878 350.4516 14.97184959340659
QO-100
1 43700U 18090A   25028.58105024  .00000155  00000-0  00000-0 0  9995
2 43700   0.0165  69.4281 0000877 248.6180  44.9879  1.00269842 22613
MinXSS-2
1 43758U 18099A   25028.44798244  .00022839  00000-0  10790-2 0  9996
2 43758  97.5232  94.5144 0012396 259.3311 100.6528 15.19356509336861
AO-95
1 43770U 18099N   25028.12692935  .00014604  00000-0  82362-3 0  9991
2 43770  97.5138  87.8912 0010812 316.1707  43.8665 15.13225020336496
RANGE-A
1 43773U 18099R   25028.10129306  .00008472  00000-0  57018-3 0  9995
2 43773  97.4700  80.3804 0010685 288.9087  71.0982 15.06915049336254
MOVE-II
1 43780U 18099Y   25028.44476687  .00068688  00000-0  17478-2 0  9997
2 43780  97.4879  98.2521 0003772 266.5122  93.5692 15.39335396337271
SNUSat 2
1 43782U 18099AA  25028.40927821  .00012003  00000-0  71589-3 0  9990
2 43782  97.4828  85.9335 0011476 248.3977 111.6031 15.11246626336511
SnugLite
1 43784U 18099AC  25028.11799615  .00015265  00000-0  85487-3 0  9993
2 43784  97.4638  85.0030 0002566 251.3564 108.7389 15.13512442336574
ITASat 1
1 43786U 18099AE  25028.42032688  .00011302  00000-0  69663-3 0  9995
2 43786  97.4795  85.7991 0014166 305.5087  54.4820 15.10035530336497
EAGLET 1
1 43790U 18099AJ  25028.12144355  .00007100  00000-0  47667-3 0  9993
2 43790  97.4975  85.8189 0011348 285.4163  74.5811 15.07061324336109
ESEO
1 43792U 18099AL  25028.17990898  .00002894  00000-0  22693-3 0  9998
2 43792  97.4675  80.8308 0008607 238.4457 121.5928 15.01691812335942
CSIM
1 43793U 18099AM  25028.43077835  .00076762  00000-0  19579-2 0  9998
2 43793  97.5049 100.1746 0007500 239.7376 120.3127 15.39206207337116
JO-97
1 43803U 18099AX  25028.40695640  .00017564  00000-0  91671-3 0  9996
2 43803  97.4885  88.9597 0007048 242.3442 117.7076 15.15970938336714
Suomi 100
1 43804U 18099AY  25028.43673639  .00016682  00000-0  91334-3 0  9990
2 43804  97.4954  88.5898 0012326 245.5854 114.4092 15.14239466336679
ISAT
1 43879U 18111D   25028.26158800  .00026409  00000-0  11492-2 0  9990
2 43879  97.6056 300.4101 0008624 311.8164  48.2335 15.22187484333511
UWE-4
1 43880U 18111E   25028.22111863  .00023075  00000-0  10800-2 0  9994
2 43880  97.5994 299.6222 0012382 321.0454  38.9887 15.19679292333480
Sparrow
1 43881U 18111F   25028.26824470  .00027627  00000-0  11726-2 0  9999
2 43881  97.6179 302.8468 0007974 359.4969   0.6257 15.23029927333591
